| time (UTC) | temp C | wind direction | speed KPH | gust KPH | rain 1hr cm | rain 24hr cm | rain mn cm | humidity % | barometer mb |
| 20260505224004 | 12 | 0 | 0.0 | 0.0 | 0.00 | 0.64 | 0.00 | 56 | 1011.6 |
| 20260505223503 | 12 | 0 | 0.0 | 0.0 | 0.00 | 0.64 | 0.00 | 56 | 1011.8 |
| 20260505223003 | 12 | 0 | 0.0 | 0.0 | 0.00 | 0.64 | 0.00 | 56 | 1011.9 |
| 20260505222504 | 12 | 0 | 0.0 | 0.0 | 0.00 | 0.64 | 0.00 | 56 | 1011.9 |
| 20260505222004 | 12 | 0 | 0.0 | 0.0 | 0.00 | 0.64 | 0.00 | 56 | 1011.9 |
| 20260505221503 | 12 | 0 | 0.0 | 0.0 | 0.00 | 0.64 | 0.00 | 57 | 1012.2 |
| 20260505221213 | 12 | 0 | 0.0 | 0.0 | 0.00 | 0.64 | 0.00 | 57 | 1012.2 |
| 20260505220504 | 12 | 0 | 0.0 | 0.0 | 0.00 | 0.64 | 0.00 | 57 | 1012.1 |
| 20260505220005 | 12 | 0 | 0.0 | 0.0 | 0.00 | 0.64 | 0.00 | 57 | 1012.2 |
| 20260505215504 | 12 | 0 | 0.0 | 0.0 | 0.00 | 0.64 | 0.64 | 57 | 1012.2 |
| 20260505215003 | 12 | 0 | 0.0 | 0.0 | 0.00 | 0.64 | 0.64 | 57 | 1012.2 |
| 20260505214503 | 12 | 0 | 0.0 | 0.0 | 0.00 | 0.64 | 0.64 | 57 | 1012.2 |
| 20260505214003 | 12 | 0 | 0.0 | 0.0 | 0.00 | 0.64 | 0.64 | 57 | 1012.3 |
| 20260505213504 | 12 | 0 | 0.0 | 0.0 | 0.00 | 0.64 | 0.64 | 58 | 1012.2 |
| 20260505213003 | 12 | 0 | 0.0 | 0.0 | 0.00 | 0.64 | 0.64 | 58 | 1012.2 |
| 20260505212503 | 12 | 0 | 0.0 | 0.0 | 0.00 | 0.64 | 0.64 | 58 | 1012.3 |
| 20260505212004 | 12 | 0 | 0.0 | 0.0 | 0.00 | 0.64 | 0.64 | 57 | 1012.3 |
| 20260505211716 | 12 | 0 | 0.0 | 0.0 | 0.00 | 0.64 | 0.64 | 57 | 1012.4 |
| 20260505211004 | 12 | 0 | 0.0 | 0.0 | 0.00 | 0.64 | 0.64 | 58 | 1012.4 |
| 20260505210504 | 12 | 0 | 0.0 | 0.0 | 0.00 | 0.64 | 0.64 | 58 | 1012.5 |
| 20260505210005 | 12 | 0 | 0.0 | 0.0 | 0.00 | 0.64 | 0.64 | 58 | 1012.5 |
| 20260505205713 | 12 | 0 | 0.0 | 0.0 | 0.00 | 0.64 | 0.64 | 58 | 1012.5 |
| 20260505205003 | 12 | 0 | 0.0 | 0.0 | 0.00 | 0.64 | 0.64 | 58 | 1012.6 |
| 20260505204503 | 12 | 0 | 0.0 | 0.0 | 0.00 | 0.64 | 0.64 | 58 | 1012.6 |
| 20260505204009 | 12 | 0 | 0.0 | 0.0 | 0.00 | 0.64 | 0.64 | 58 | 1012.6 |
| 20260505203503 | 12 | 53 | 0.0 | 1.6 | 0.00 | 0.64 | 0.64 | 58 | 1012.5 |
| 20260505203003 | 12 | 53 | 0.0 | 1.6 | 0.00 | 0.64 | 0.64 | 59 | 1012.5 |
| 20260505202716 | 12 | 0 | 0.0 | 0.0 | 0.00 | 0.64 | 0.64 | 59 | 1012.5 |
| 20260505202003 | 12 | 0 | 0.0 | 0.0 | 0.00 | 0.64 | 0.64 | 59 | 1012.5 |
| 20260505201503 | 12 | 0 | 0.0 | 0.0 | 0.00 | 0.64 | 0.64 | 60 | 1012.5 |
| 20260505201003 | 12 | 0 | 0.0 | 0.0 | 0.00 | 0.64 | 0.64 | 60 | 1012.6 |
| 20260505200504 | 12 | 0 | 0.0 | 0.0 | 0.00 | 0.64 | 0.64 | 60 | 1012.6 |
| 20260505200004 | 12 | 0 | 0.0 | 0.0 | 0.00 | 0.64 | 0.64 | 61 | 1012.6 |
| 20260505195503 | 12 | 0 | 0.0 | 0.0 | 0.00 | 0.64 | 0.64 | 61 | 1012.6 |
| 20260505195003 | 12 | 0 | 0.0 | 0.0 | 0.00 | 0.64 | 0.64 | 62 | 1012.5 |
| 20260505194503 | 12 | 0 | 0.0 | 0.0 | 0.00 | 0.64 | 0.64 | 62 | 1012.4 |
| 20260505194217 | 12 | 0 | 0.0 | 0.0 | 0.00 | 0.64 | 0.64 | 62 | 1012.4 |
| 20260505193503 | 12 | 0 | 0.0 | 0.0 | 0.00 | 0.64 | 0.64 | 63 | 1012.4 |
| 20260505193003 | 12 | 0 | 0.0 | 0.0 | 0.00 | 0.64 | 0.64 | 63 | 1012.2 |
| 20260505192717 | 12 | 0 | 0.0 | 0.0 | 0.00 | 0.64 | 0.64 | 64 | 1012.3 |
| 20260505192003 | 12 | 0 | 0.0 | 0.0 | 0.00 | 0.64 | 0.64 | 64 | 1012.3 |
| 20260505191718 | 12 | 0 | 0.0 | 0.0 | 0.00 | 0.64 | 0.64 | 65 | 1012.3 |
| 20260505191003 | 12 | 0 | 0.0 | 0.0 | 0.00 | 0.64 | 0.64 | 65 | 1012.3 |
| 20260505190713 | 12 | 0 | 0.0 | 0.0 | 0.00 | 0.64 | 0.64 | 65 | 1012.3 |
| 20260505190004 | 13 | 0 | 0.0 | 0.0 | 0.00 | 0.64 | 0.64 | 66 | 1012.2 |
| 20260505185503 | 13 | 49 | 0.0 | 1.6 | 0.00 | 0.64 | 0.64 | 67 | 1012.1 |
| 20260505185003 | 13 | 49 | 0.0 | 1.6 | 0.00 | 0.64 | 0.64 | 68 | 1012.1 |
| 20260505184503 | 13 | 49 | 0.0 | 1.6 | 0.00 | 0.64 | 0.64 | 69 | 1012.1 |
| 20260505184003 | 13 | 0 | 0.0 | 0.0 | 0.00 | 0.64 | 0.64 | 69 | 1012.1 |
| 20260505183503 | 13 | 0 | 0.0 | 0.0 | 0.00 | 0.64 | 0.64 | 69 | 1012.1 |
| 20260505183004 | 13 | 0 | 0.0 | 0.0 | 0.00 | 0.64 | 0.64 | 70 | 1012.1 |
| 20260505182504 | 13 | 0 | 0.0 | 0.0 | 0.00 | 0.64 | 0.64 | 71 | 1012.1 |
| 20260505182003 | 13 | 0 | 0.0 | 0.0 | 0.00 | 0.64 | 0.64 | 71 | 1012.1 |
| 20260505181503 | 13 | 0 | 0.0 | 0.0 | 0.00 | 0.64 | 0.64 | 72 | 1012.1 |
| 20260505181003 | 13 | 0 | 0.0 | 0.0 | 0.00 | 0.64 | 0.64 | 73 | 1012.2 |
| 20260505180503 | 13 | 0 | 0.0 | 0.0 | 0.00 | 0.64 | 0.64 | 73 | 1012.0 |
| 20260505180003 | 13 | 64 | 0.0 | 3.2 | 0.00 | 0.64 | 0.64 | 73 | 1012.0 |
| 20260505175715 | 13 | 64 | 0.0 | 3.2 | 0.00 | 0.64 | 0.64 | 74 | 1012.0 |
| 20260505175003 | 13 | 0 | 0.0 | 0.0 | 0.00 | 0.64 | 0.64 | 74 | 1012.0 |
| 20260505174503 | 13 | 0 | 0.0 | 0.0 | 0.00 | 0.64 | 0.64 | 75 | 1012.1 |
| 20260505174003 | 13 | 45 | 0.0 | 1.6 | 0.00 | 0.64 | 0.64 | 75 | 1012.1 |
| 20260505173504 | 13 | 45 | 0.0 | 1.6 | 0.00 | 0.64 | 0.64 | 76 | 1012.1 |
| 20260505173004 | 13 | 0 | 0.0 | 0.0 | 0.00 | 0.64 | 0.64 | 76 | 1012.1 |
| 20260505172503 | 13 | 0 | 0.0 | 0.0 | 0.00 | 0.64 | 0.64 | 77 | 1012.1 |
| 20260505172004 | 13 | 0 | 0.0 | 0.0 | 0.00 | 0.64 | 0.64 | 77 | 1012.0 |
| 20260505171503 | 14 | 0 | 0.0 | 0.0 | 0.00 | 0.64 | 0.64 | 77 | 1012.0 |
| 20260505171003 | 14 | 0 | 0.0 | 0.0 | 0.00 | 0.64 | 0.64 | 77 | 1012.1 |
| 20260505170503 | 14 | 0 | 0.0 | 0.0 | 0.00 | 0.64 | 0.64 | 78 | 1012.1 |
| 20260505170003 | 14 | 0 | 0.0 | 0.0 | 0.00 | 0.64 | 0.64 | 78 | 1012.2 |
| 20260505165503 | 14 | 0 | 0.0 | 0.0 | 0.00 | 0.64 | 0.64 | 79 | 1012.2 |
| 20260505165003 | 14 | 0 | 0.0 | 0.0 | 0.00 | 0.64 | 0.64 | 79 | 1012.4 |
| 20260505164504 | 14 | 0 | 0.0 | 0.0 | 0.00 | 0.64 | 0.64 | 79 | 1012.3 |
| 20260505164003 | 14 | 0 | 0.0 | 0.0 | 0.00 | 0.64 | 0.64 | 80 | 1012.3 |
| 20260505163503 | 14 | 0 | 0.0 | 0.0 | 0.00 | 0.64 | 0.64 | 80 | 1012.3 |
| 20260505163003 | 14 | 0 | 0.0 | 0.0 | 0.00 | 0.64 | 0.64 | 80 | 1012.3 |
| 20260505162503 | 14 | 0 | 0.0 | 0.0 | 0.00 | 0.64 | 0.64 | 81 | 1012.3 |
| 20260505162003 | 14 | 0 | 0.0 | 0.0 | 0.00 | 0.64 | 0.64 | 81 | 1012.3 |
| 20260505161504 | 14 | 0 | 0.0 | 0.0 | 0.00 | 0.64 | 0.64 | 81 | 1012.2 |
| 20260505161003 | 14 | 0 | 0.0 | 0.0 | 0.00 | 0.64 | 0.64 | 81 | 1012.2 |
| 20260505160503 | 14 | 0 | 0.0 | 0.0 | 0.00 | 0.64 | 0.64 | 81 | 1012.1 |
| 20260505153004 | 14 | 0 | 0.0 | 0.0 | 0.00 | 0.64 | 0.64 | 81 | 1012.4 |
| 20260505152504 | 15 | 0 | 0.0 | 0.0 | 0.00 | 0.64 | 0.64 | 81 | 1012.4 |
| 20260505152003 | 15 | 0 | 0.0 | 0.0 | 0.00 | 0.64 | 0.64 | 81 | 1012.3 |
| 20260505151503 | 15 | 0 | 0.0 | 0.0 | 0.00 | 0.64 | 0.64 | 81 | 1012.3 |
| 20260505151003 | 15 | 0 | 0.0 | 0.0 | 0.00 | 0.64 | 0.64 | 81 | 1012.3 |
| 20260505150504 | 14 | 0 | 0.0 | 0.0 | 0.00 | 0.64 | 0.64 | 81 | 1012.3 |
| 20260505125003 | 12 | 0 | 0.0 | 0.0 | 0.00 | 0.64 | 0.64 | 64 | 1013.2 |
| 20260505124504 | 12 | 0 | 0.0 | 0.0 | 0.00 | 0.64 | 0.64 | 65 | 1013.2 |
| 20260505124003 | 12 | 0 | 0.0 | 0.0 | 0.00 | 0.64 | 0.64 | 64 | 1013.2 |
| 20260505123503 | 12 | 0 | 0.0 | 0.0 | 0.00 | 0.64 | 0.64 | 63 | 1013.2 |
| 20260505123004 | 12 | 0 | 0.0 | 0.0 | 0.00 | 0.64 | 0.64 | 64 | 1013.2 |
| 20260505122503 | 12 | 0 | 0.0 | 0.0 | 0.00 | 0.64 | 0.64 | 65 | 1013.3 |
| 20260505122004 | 12 | 134 | 0.0 | 6.4 | 0.00 | 0.64 | 0.64 | 67 | 1013.3 |
| 20260505121503 | 12 | 134 | 0.0 | 6.4 | 0.00 | 0.64 | 0.64 | 67 | 1013.4 |
| 20260505121003 | 12 | 0 | 0.0 | 0.0 | 0.00 | 0.64 | 0.64 | 65 | 1013.4 |
| 20260505120712 | 12 | 0 | 0.0 | 0.0 | 0.00 | 0.64 | 0.64 | 66 | 1013.4 |
| 20260505120004 | 12 | 0 | 0.0 | 0.0 | 0.00 | 0.64 | 0.64 | 67 | 1013.4 |
| 20260505115713 | 12 | 0 | 0.0 | 0.0 | 0.00 | 0.64 | 0.64 | 65 | 1013.4 |
| 20260505115003 | 12 | 0 | 0.0 | 0.0 | 0.00 | 0.64 | 0.64 | 64 | 1013.4 |
| 20260505114503 | 12 | 301 | 0.0 | 3.2 | 0.00 | 0.64 | 0.64 | 65 | 1013.4 |
| 20260505114004 | 12 | 301 | 0.0 | 3.2 | 0.00 | 0.64 | 0.64 | 63 | 1013.3 |
| 20260505113503 | 12 | 0 | 0.0 | 0.0 | 0.00 | 0.64 | 0.64 | 64 | 1013.4 |
| 20260505113004 | 12 | 0 | 0.0 | 0.0 | 0.00 | 0.64 | 0.64 | 65 | 1013.4 |
| 20260505112503 | 12 | 0 | 0.0 | 0.0 | 0.00 | 0.64 | 0.64 | 65 | 1013.5 |
| 20260505112003 | 12 | 0 | 0.0 | 0.0 | 0.00 | 0.64 | 0.64 | 66 | 1013.5 |
| 20260505111503 | 12 | 0 | 0.0 | 0.0 | 0.00 | 0.64 | 0.64 | 65 | 1013.5 |
| 20260505111004 | 12 | 0 | 0.0 | 0.0 | 0.00 | 0.64 | 0.64 | 65 | 1013.5 |
| 20260505110713 | 12 | 0 | 0.0 | 0.0 | 0.00 | 0.64 | 0.64 | 64 | 1013.5 |
| 20260505102003 | 12 | 255 | 0.0 | 4.8 | 0.03 | 0.64 | 0.64 | 59 | 1013.8 |
| 20260505101503 | 12 | 260 | 0.0 | 4.8 | 0.03 | 0.64 | 0.64 | 58 | 1013.8 |
| 20260505101004 | 11 | 270 | 0.0 | 3.2 | 0.03 | 0.64 | 0.64 | 57 | 1013.7 |
| 20260505100503 | 11 | 269 | 0.0 | 1.6 | 0.03 | 0.64 | 0.64 | 57 | 1013.7 |
| 20260505100217 | 11 | 245 | 0.0 | 1.6 | 0.03 | 0.64 | 0.64 | 57 | 1013.7 |
| 20260505095715 | 11 | 242 | 0.0 | 1.6 | 0.03 | 0.64 | 0.64 | 58 | 1013.7 |
| 20260505095003 | 11 | 253 | 0.0 | 3.2 | 0.03 | 0.64 | 0.64 | 59 | 1013.8 |
| 20260505094503 | 11 | 0 | 0.0 | 0.0 | 0.03 | 0.64 | 0.64 | 57 | 1013.8 |
| 20260505094003 | 11 | 249 | 0.0 | 3.2 | 0.03 | 0.64 | 0.64 | 57 | 1013.9 |
| 20260505093504 | 11 | 251 | 0.0 | 3.2 | 0.03 | 0.64 | 0.64 | 57 | 1013.8 |
| 20260505093004 | 11 | 273 | 0.0 | 4.8 | 0.03 | 0.64 | 0.64 | 58 | 1013.8 |
| 20260505092503 | 11 | 265 | 0.0 | 6.4 | 0.00 | 0.61 | 0.61 | 58 | 1013.8 |
| 20260505092003 | 11 | 262 | 0.0 | 6.4 | 0.00 | 0.61 | 0.61 | 54 | 1013.7 |
| 20260505091504 | 11 | 268 | 0.0 | 4.8 | 0.00 | 0.61 | 0.61 | 53 | 1013.7 |
| 20260505091003 | 11 | 0 | 0.0 | 0.0 | 0.00 | 0.61 | 0.61 | 53 | 1013.7 |
| 20260505090503 | 11 | 0 | 0.0 | 0.0 | 0.00 | 0.61 | 0.61 | 53 | 1013.7 |
| 20260505090004 | 11 | 190 | 0.0 | 4.8 | 0.00 | 0.61 | 0.61 | 54 | 1013.7 |
| 20260505085503 | 11 | 190 | 0.0 | 4.8 | 0.00 | 0.61 | 0.61 | 55 | 1013.7 |
| 20260505085003 | 11 | 190 | 0.0 | 3.2 | 0.00 | 0.61 | 0.61 | 53 | 1013.6 |
| 20260505084503 | 11 | 0 | 0.0 | 0.0 | 0.00 | 0.61 | 0.61 | 53 | 1013.5 |
| 20260505084003 | 11 | 157 | 0.0 | 1.6 | 0.00 | 0.61 | 0.61 | 55 | 1013.4 |
| 20260505083503 | 11 | 157 | 0.0 | 1.6 | 0.00 | 0.61 | 0.61 | 55 | 1013.4 |
| 20260505083004 | 11 | 157 | 0.0 | 1.6 | 0.03 | 0.61 | 0.61 | 56 | 1013.4 |
| 20260505082503 | 11 | 133 | 0.0 | 1.6 | 0.03 | 0.61 | 0.61 | 55 | 1013.4 |
| 20260505082004 | 11 | 144 | 0.0 | 4.8 | 0.03 | 0.61 | 0.61 | 55 | 1013.4 |
| 20260505081504 | 11 | 146 | 0.0 | 4.8 | 0.03 | 0.61 | 0.61 | 56 | 1013.3 |
| 20260505081004 | 11 | 145 | 0.0 | 3.2 | 0.03 | 0.61 | 0.61 | 56 | 1013.3 |
| 20260505080503 | 11 | 0 | 0.0 | 0.0 | 0.03 | 0.61 | 0.61 | 55 | 1013.2 |
| 20260505080213 | 11 | 0 | 0.0 | 0.0 | 0.03 | 0.61 | 0.61 | 56 | 1013.2 |
| 20260505075503 | 11 | 0 | 0.0 | 0.0 | 0.03 | 0.61 | 0.61 | 57 | 1013.2 |
| 20260505075003 | 11 | 0 | 0.0 | 0.0 | 0.03 | 0.61 | 0.61 | 57 | 1013.2 |
| 20260505074503 | 11 | 0 | 0.0 | 0.0 | 0.03 | 0.61 | 0.61 | 57 | 1013.2 |
| 20260505074003 | 11 | 0 | 0.0 | 0.0 | 0.03 | 0.61 | 0.61 | 57 | 1013.2 |
| 20260505073503 | 11 | 0 | 0.0 | 0.0 | 0.03 | 0.61 | 0.61 | 57 | 1013.1 |
| 20260505073004 | 11 | 0 | 0.0 | 0.0 | 0.00 | 0.61 | 0.61 | 59 | 1013.1 |
| 20260505072714 | 11 | 0 | 0.0 | 0.0 | 0.03 | 0.61 | 0.61 | 60 | 1013.1 |
| 20260505072003 | 11 | 188 | 0.0 | 6.4 | 0.03 | 0.61 | 0.61 | 60 | 1013.2 |
| 20260505071504 | 11 | 186 | 0.0 | 6.4 | 0.03 | 0.61 | 0.61 | 61 | 1013.3 |
| 20260505071003 | 11 | 183 | 0.0 | 4.8 | 0.03 | 0.61 | 0.61 | 61 | 1013.2 |
| 20260505070716 | 11 | 173 | 0.0 | 3.2 | 0.03 | 0.61 | 0.61 | 61 | 1013.2 |
| 20260505070003 | 11 | 177 | 1.6 | 6.4 | 0.03 | 0.61 | 0.61 | 61 | 1013.1 |
| 20260505065503 | 11 | 177 | 1.6 | 6.4 | 0.05 | 0.61 | 0.61 | 62 | 1013.1 |
| 20260505065003 | 11 | 170 | 0.0 | 4.8 | 0.05 | 0.61 | 0.61 | 59 | 1013.1 |
| 20260505064504 | 11 | 150 | 0.0 | 3.2 | 0.05 | 0.61 | 0.61 | 60 | 1013.1 |
| 20260505064003 | 11 | 0 | 0.0 | 0.0 | 0.08 | 0.61 | 0.61 | 60 | 1013.0 |
| 20260505063504 | 11 | 0 | 0.0 | 0.0 | 0.10 | 0.61 | 0.61 | 59 | 1012.9 |
| 20260505063003 | 11 | 0 | 0.0 | 0.0 | 0.10 | 0.61 | 0.61 | 59 | 1012.9 |
| 20260505062504 | 11 | 336 | 0.0 | 1.6 | 0.10 | 0.58 | 0.58 | 60 | 1012.8 |
| 20260505062218 | 11 | 328 | 0.0 | 4.8 | 0.13 | 0.58 | 0.58 | 60 | 1012.8 |
| 20260505061503 | 11 | 326 | 0.0 | 4.8 | 0.15 | 0.58 | 0.58 | 62 | 1012.8 |
| 20260505061003 | 11 | 345 | 0.0 | 1.6 | 0.18 | 0.58 | 0.58 | 63 | 1012.8 |
| 20260505060503 | 11 | 1 | 0.0 | 1.6 | 0.20 | 0.58 | 0.58 | 64 | 1012.8 |
| 20260505060004 | 11 | 335 | 0.0 | 3.2 | 0.23 | 0.58 | 0.58 | 65 | 1012.9 |
| 20260505055503 | 11 | 322 | 0.0 | 4.8 | 0.25 | 0.56 | 0.56 | 66 | 1013.0 |
| 20260505055003 | 11 | 319 | 0.0 | 4.8 | 0.25 | 0.53 | 0.53 | 66 | 1013.1 |
| 20260505054503 | 11 | 287 | 0.0 | 1.6 | 0.30 | 0.53 | 0.53 | 66 | 1013.1 |
| 20260505054004 | 11 | 283 | 0.0 | 1.6 | 0.30 | 0.51 | 0.51 | 67 | 1013.2 |
| 20260505053503 | 11 | 282 | 0.0 | 1.6 | 0.30 | 0.51 | 0.51 | 66 | 1013.2 |
| 20260505053003 | 11 | 0 | 0.0 | 0.0 | 0.33 | 0.51 | 0.51 | 67 | 1013.3 |
| 20260505052715 | 11 | 0 | 0.0 | 0.0 | 0.33 | 0.48 | 0.48 | 67 | 1013.3 |
| 20260505052003 | 11 | 0 | 0.0 | 0.0 | 0.33 | 0.46 | 0.46 | 69 | 1013.3 |
| 20260505051503 | 11 | 0 | 0.0 | 0.0 | 0.33 | 0.43 | 0.43 | 69 | 1013.3 |
| 20260505051214 | 11 | 0 | 0.0 | 0.0 | 0.30 | 0.41 | 0.41 | 69 | 1013.3 |
| 20260505050503 | 11 | 269 | 0.0 | 3.2 | 0.30 | 0.38 | 0.38 | 70 | 1013.3 |
| 20260505041717 | 11 | 188 | 0.0 | 1.6 | 0.05 | 0.10 | 0.10 | 75 | 1013.5 |
| 20260505041003 | 11 | 192 | 0.0 | 4.8 | 0.05 | 0.10 | 0.10 | 76 | 1013.5 |
| 20260505040503 | 11 | 195 | 0.0 | 6.4 | 0.03 | 0.08 | 0.08 | 76 | 1013.5 |
| 20260505040004 | 11 | 196 | 0.0 | 6.4 | 0.03 | 0.08 | 0.08 | 76 | 1013.4 |
| 20260505035503 | 11 | 217 | 0.0 | 1.6 | 0.03 | 0.08 | 0.08 | 76 | 1013.4 |
| 20260505035004 | 11 | 241 | 0.0 | 1.6 | 0.00 | 0.05 | 0.05 | 76 | 1013.4 |
| 20260505034504 | 11 | 254 | 0.0 | 1.6 | 0.00 | 0.05 | 0.05 | 76 | 1013.4 |
| 20260505034004 | 11 | 0 | 0.0 | 0.0 | 0.00 | 0.05 | 0.05 | 76 | 1013.4 |
| 20260505033504 | 11 | 258 | 0.0 | 1.6 | 0.00 | 0.05 | 0.05 | 77 | 1013.3 |
| 20260505033003 | 11 | 258 | 0.0 | 1.6 | 0.00 | 0.05 | 0.05 | 77 | 1013.2 |
| 20260505032503 | 11 | 0 | 0.0 | 0.0 | 0.00 | 0.05 | 0.05 | 77 | 1013.2 |
| 20260505032004 | 11 | 0 | 0.0 | 0.0 | 0.00 | 0.05 | 0.05 | 77 | 1013.2 |
| 20260505031503 | 11 | 0 | 0.0 | 0.0 | 0.00 | 0.05 | 0.05 | 77 | 1013.1 |
| 20260505031003 | 11 | 0 | 0.0 | 0.0 | 0.00 | 0.05 | 0.05 | 77 | 1013.1 |
| 20260505030713 | 11 | 0 | 0.0 | 0.0 | 0.00 | 0.05 | 0.05 | 77 | 1013.1 |
| 20260505030004 | 11 | 0 | 0.0 | 0.0 | 0.00 | 0.05 | 0.05 | 78 | 1013.0 |
| 20260505025503 | 11 | 0 | 0.0 | 0.0 | 0.00 | 0.05 | 0.05 | 79 | 1013.0 |
| 20260505025004 | 11 | 0 | 0.0 | 0.0 | 0.00 | 0.05 | 0.05 | 80 | 1013.0 |
| 20260505024503 | 11 | 0 | 0.0 | 0.0 | 0.00 | 0.05 | 0.05 | 80 | 1013.1 |
| 20260505024003 | 12 | 0 | 0.0 | 0.0 | 0.00 | 0.05 | 0.05 | 80 | 1013.1 |
| 20260505023716 | 12 | 0 | 0.0 | 0.0 | 0.00 | 0.05 | 0.05 | 80 | 1013.1 |
| 20260505023003 | 12 | 0 | 0.0 | 0.0 | 0.00 | 0.05 | 0.05 | 81 | 1013.1 |
| 20260505022504 | 12 | 0 | 0.0 | 0.0 | 0.00 | 0.05 | 0.05 | 81 | 1013.2 |
| 20260505022003 | 12 | 0 | 0.0 | 0.0 | 0.00 | 0.05 | 0.05 | 81 | 1013.2 |
| 20260505021713 | 12 | 0 | 0.0 | 0.0 | 0.00 | 0.05 | 0.05 | 81 | 1013.3 |
| 20260505021003 | 12 | 326 | 0.0 | 1.6 | 0.00 | 0.05 | 0.05 | 81 | 1013.4 |
| 20260505020504 | 12 | 326 | 0.0 | 1.6 | 0.03 | 0.05 | 0.05 | 81 | 1013.4 |
| 20260505020217 | 12 | 0 | 0.0 | 0.0 | 0.03 | 0.05 | 0.05 | 81 | 1013.4 |
| 20260505015715 | 12 | 0 | 0.0 | 0.0 | 0.03 | 0.05 | 0.05 | 81 | 1013.5 |
| 20260505015003 | 12 | 346 | 0.0 | 3.2 | 0.05 | 0.05 | 0.05 | 81 | 1013.4 |
| 20260505014503 | 12 | 346 | 0.0 | 3.2 | 0.05 | 0.05 | 0.05 | 81 | 1013.4 |
| 20260505014003 | 12 | 342 | 0.0 | 1.6 | 0.05 | 0.05 | 0.05 | 81 | 1013.5 |
| 20260505013503 | 12 | 342 | 0.0 | 1.6 | 0.05 | 0.05 | 0.05 | 81 | 1013.6 |
| 20260505013003 | 12 | 0 | 0.0 | 0.0 | 0.05 | 0.05 | 0.05 | 81 | 1013.7 |
| 20260505012503 | 12 | 325 | 0.0 | 6.4 | 0.05 | 0.05 | 0.05 | 81 | 1013.8 |
| 20260505012003 | 12 | 319 | 1.6 | 9.7 | 0.05 | 0.05 | 0.05 | 81 | 1013.8 |
| 20260505011504 | 12 | 316 | 1.6 | 9.7 | 0.05 | 0.05 | 0.05 | 81 | 1013.8 |
| 20260505011003 | 12 | 312 | 1.6 | 8.0 | 0.05 | 0.05 | 0.05 | 81 | 1014.1 |
| 20260505010503 | 12 | 307 | 0.0 | 4.8 | 0.05 | 0.05 | 0.05 | 81 | 1014.2 |
| 20260505010004 | 12 | 321 | 0.0 | 3.2 | 0.05 | 0.05 | 0.05 | 81 | 1014.4 |
| 20260505005503 | 12 | 0 | 0.0 | 0.0 | 0.05 | 0.05 | 0.05 | 81 | 1014.5 |
| 20260505005004 | 12 | 0 | 0.0 | 0.0 | 0.03 | 0.03 | 0.03 | 81 | 1014.7 |
| 20260505004503 | 12 | 0 | 0.0 | 0.0 | 0.03 | 0.03 | 0.03 | 81 | 1014.9 |
| 20260505004003 | 12 | 0 | 0.0 | 0.0 | 0.00 | 0.00 | 0.00 | 81 | 1015.0 |
| 20260505003503 | 12 | 0 | 0.0 | 0.0 | 0.00 | 0.00 | 0.00 | 81 | 1015.1 |
| 20260505003003 | 12 | 0 | 0.0 | 0.0 | 0.00 | 0.00 | 0.00 | 81 | 1015.1 |
| 20260505002503 | 12 | 0 | 0.0 | 0.0 | 0.00 | 0.00 | 0.00 | 80 | 1015.2 |
| 20260505002003 | 12 | 0 | 0.0 | 0.0 | 0.00 | 0.00 | 0.00 | 80 | 1015.2 |
| 20260505001503 | 12 | 0 | 0.0 | 0.0 | 0.00 | 0.00 | 0.00 | 80 | 1015.2 |
| 20260505001003 | 12 | 0 | 0.0 | 0.0 | 0.00 | 0.00 | 0.00 | 80 | 1015.4 |
| 20260505000504 | 12 | 0 | 0.0 | 0.0 | 0.00 | 0.00 | 0.00 | 80 | 1015.4 |
| 20260505000004 | 12 | 0 | 0.0 | 0.0 | 0.00 | 0.00 | 0.00 | 80 | 1015.5 |
| 20260504235504 | 12 | 0 | 0.0 | 0.0 | 0.00 | 0.00 | 0.00 | 79 | 1015.5 |
| 20260504235003 | 12 | 0 | 0.0 | 0.0 | 0.00 | 0.00 | 0.00 | 79 | 1015.5 |
| 20260504234503 | 12 | 0 | 0.0 | 0.0 | 0.00 | 0.00 | 0.00 | 79 | 1015.5 |
| 20260504234003 | 12 | 0 | 0.0 | 0.0 | 0.00 | 0.00 | 0.00 | 78 | 1015.4 |
| 20260504233503 | 12 | 0 | 0.0 | 0.0 | 0.00 | 0.00 | 0.00 | 78 | 1015.5 |
| 20260504233003 | 12 | 0 | 0.0 | 0.0 | 0.00 | 0.00 | 0.00 | 77 | 1015.7 |
| 20260504232503 | 12 | 188 | 0.0 | 3.2 | 0.00 | 0.00 | 0.00 | 77 | 1015.8 |
| 20260504232003 | 12 | 188 | 0.0 | 3.2 | 0.00 | 0.00 | 0.00 | 77 | 1015.9 |
| 20260504231504 | 13 | 177 | 1.6 | 3.2 | 0.00 | 0.00 | 0.00 | 77 | 1016.1 |
| 20260504230503 | 13 | 176 | 0.0 | 3.2 | 0.00 | 0.00 | 0.00 | 76 | 1016.1 |
| 20260504230004 | 13 | 179 | 0.0 | 3.2 | 0.00 | 0.00 | 0.00 | 75 | 1016.2 |
| 20260504225503 | 13 | 0 | 0.0 | 0.0 | 0.00 | 0.00 | 0.00 | 74 | 1016.2 |
| 20260504225003 | 13 | 0 | 0.0 | 0.0 | 0.00 | 0.00 | 0.00 | 74 | 1016.2 |
| 20260504224505 | 13 | 0 | 0.0 | 0.0 | 0.00 | 0.00 | 0.00 | 73 | 1016.2 |